HB9KNR Weather Reports


time (UTC)temp
F
wind
direction
speed
knots
gust
knots
rain 1hr
in
rain 24hr
in
rain mn
in
humidity
%
barometer
mb
20260507004516 45 0.0 0.0 0.00 0.27 0.00 92 1011.3
20260507003516 45 0.0 0.0 0.00 0.27 0.00 91 1011.2
20260507002516 45 0.0 0.0 0.00 0.27 0.00 91 1011.2
20260507001516 45 0.0 0.0 0.00 0.27 0.00 92 1011.2
20260507000516 45 0.0 0.0 0.00 0.27 0.00 92 1011.0
20260506235517 45 0.0 0.0 0.00 0.27 0.00 92 1011.1
20260506234516 45 0.0 0.0 0.00 0.27 0.00 91 1011.1
20260506233516 45 0.0 0.0 0.00 0.27 0.00 91 1010.9
20260506232557 45 0.0 0.0 0.00 0.27 0.00 91 1010.9
20260506231516 45 0.0 0.0 0.00 0.27 0.00 91 1010.8
20260506230516 46 0.0 0.0 0.00 0.27 0.00 91 1010.8
20260506225516 46 0.0 0.0 0.00 0.27 0.00 91 1010.8
20260506224516 46 0.0 0.0 0.00 0.27 0.00 91 1010.9
20260506223516 46 0.0 0.0 0.00 0.27 0.00 91 1010.7
20260506222516 46 0.0 0.0 0.00 0.27 0.00 91 1010.8
20260506221516 46 0.0 0.0 0.00 0.27 0.00 91 1010.7
20260506220516 47 0.0 0.0 0.00 0.27 0.00 91 1010.7
20260506215517 47 0.0 0.0 0.00 0.27 0.27 91 1010.7
20260506214517 47 0.0 0.0 0.00 0.27 0.27 91 1010.6
20260506213537 47 0.0 0.0 0.00 0.27 0.27 91 1010.4
20260506212517 47 0.0 0.0 0.00 0.27 0.27 90 1010.5
20260506211517 47 0.0 1.7 0.00 0.27 0.27 90 1010.4
20260506210517 47 0.0 0.0 0.00 0.27 0.27 90 1010.4
20260506205517 47 0.0 0.0 0.00 0.27 0.27 89 1010.4
20260506204517 47 0.0 0.0 0.00 0.27 0.27 89 1010.4
20260506203517 47 0.0 0.0 0.00 0.27 0.27 89 1010.4
20260506202517 48 0.0 0.0 0.00 0.27 0.27 89 1010.3
20260506201517 48 0.0 0.0 0.00 0.27 0.27 89 1010.2
20260506200517 48 0.0 0.0 0.00 0.27 0.27 89 1010.1
20260506195517 48 0.0 0.0 0.00 0.27 0.27 89 1009.9
20260506194517 48 0.0 0.0 0.00 0.27 0.27 88 1009.9
20260506193517 48 0.0 0.0 0.00 0.27 0.27 88 1009.8
20260506192517 49 0.0 0.0 0.00 0.27 0.27 88 1009.6
20260506191517 49 0.0 0.0 0.00 0.27 0.27 88 1009.7
20260506190517 49 0.0 0.0 0.00 0.27 0.27 87 1009.7
20260506185517 49 0.0 0.0 0.00 0.27 0.27 87 1009.5
20260506184537 50 0.0 0.0 0.00 0.28 0.27 87 1009.3
20260506183537 50 0.0 0.9 0.00 0.28 0.27 87 1009.0
20260506182517 51 0.0 0.0 0.00 0.28 0.27 87 1008.9
20260506181517 51 0.0 0.0 0.00 0.28 0.27 87 1008.9
20260506180517 51 0.0 1.7 0.00 0.28 0.27 87 1008.9
20260506175517 51 0.0 0.9 0.00 0.28 0.27 88 1008.9
20260506174700 52 0.0 1.7 0.00 0.28 0.27 88 1008.9
20260506173517 52 0.0 0.9 0.00 0.28 0.27 88 1008.5
20260506172517 52 0.0 2.6 0.00 0.28 0.27 88 1008.5
20260506171517 52 0.0 0.9 0.00 0.28 0.27 88 1008.4
20260506170517 52 0.0 3.5 0.00 0.28 0.27 88 1008.0
20260506165537 52 0.0 2.6 0.00 0.28 0.27 89 1008.0
20260506164516 52 0.0 1.7 0.00 0.28 0.27 90 1008.0
20260506163517 52 0.0 1.7 0.00 0.28 0.27 89 1007.9
20260506162517 52 0.0 0.9 0.00 0.28 0.27 89 1007.9
20260506161537 52 0.0 1.7 0.00 0.28 0.27 89 1007.9
20260506160517 52 0.0 2.6 0.00 0.28 0.27 90 1007.8
20260506155517 52 293 0.9 6.1 0.00 0.28 0.27 90 1007.5
20260506154559 52 293 0.9 3.5 0.00 0.28 0.27 91 1007.5
20260506153537 52 0.0 3.5 0.00 0.28 0.27 92 1007.8
20260506152517 51 293 0.9 4.3 0.01 0.28 0.27 92 1007.9
20260506151517 51 0.0 0.0 0.02 0.28 0.27 92 1007.8
20260506150537 51 0.0 2.6 0.06 0.28 0.27 92 1007.9
20260506145516 51 293 0.9 3.5 0.11 0.28 0.27 91 1007.8
20260506144516 51 0.0 0.9 0.14 0.28 0.27 92 1007.7
20260506143516 51 293 0.9 4.3 0.19 0.28 0.27 92 1007.5
20260506142516 50 293 0.9 4.3 0.23 0.27 0.26 90 1007.4
20260506141537 51 0.0 2.6 0.25 0.26 0.25 89 1007.2
20260506140517 51 270 0.9 7.8 0.21 0.22 0.21 88 1007.3
20260506135517 52 293 0.9 3.5 0.16 0.17 0.16 86 1007.1
20260506134516 53 293 0.9 8.7 0.13 0.13 0.13 84 1006.7
20260506133516 54 293 1.7 7.8 0.08 0.09 0.08 81 1006.7
20260506132517 57 0.0 0.9 0.03 0.04 0.03 78 1006.8
20260506131537 60 0.0 0.9 0.00 0.01 0.00 75 1006.5
20260506130516 60 0.0 0.0 0.00 0.01 0.00 74 1006.1
20260506125537 60 0.0 0.0 0.00 0.01 0.00 73 1005.9
20260506124516 60 0.0 0.0 0.00 0.01 0.00 72 1005.7
20260506123517 59 0.0 0.0 0.00 0.01 0.00 72 1005.7
20260506122517 59 0.0 0.0 0.00 0.01 0.00 71 1005.6
20260506121517 59 0.0 0.0 0.00 0.01 0.00 75 1005.6
20260506120516 59 0.0 0.0 0.00 0.01 0.00 75 1005.7
20260506115556 59 0.0 0.0 0.00 0.01 0.00 74 1005.7
20260506114517 59 0.0 0.0 0.00 0.01 0.00 76 1005.7
20260506113516 59 0.0 0.0 0.00 0.01 0.00 77 1005.4
20260506112517 58 0.0 0.0 0.00 0.01 0.00 79 1005.4
20260506111536 58 0.0 0.0 0.00 0.01 0.00 80 1005.6
20260506110517 58 0.0 0.0 0.00 0.01 0.00 82 1005.8
20260506105516 58 0.0 0.0 0.00 0.01 0.00 83 1005.8
20260506104537 58 0.0 0.0 0.00 0.01 0.00 84 1005.9
20260506103516 57 0.0 0.0 0.00 0.01 0.00 84 1006.1
20260506102516 58 0.0 0.0 0.00 0.01 0.00 85 1006.0
20260506101516 57 0.0 0.0 0.00 0.01 0.00 86 1006.0
20260506100516 57 0.0 0.0 0.00 0.01 0.00 86 1006.2
20260506095537 56 0.0 0.0 0.00 0.01 0.00 87 1005.9
20260506094516 56 0.0 0.0 0.00 0.01 0.00 87 1006.3
20260506093516 55 0.0 0.0 0.00 0.01 0.00 88 1006.2
20260506092536 55 0.0 0.0 0.00 0.01 0.00 88 1006.2
20260506091518 55 0.0 0.0 0.00 0.01 0.00 88 1006.1
20260506090516 55 0.0 0.0 0.00 0.01 0.00 89 1006.2
20260506085516 55 0.0 0.0 0.00 0.01 0.00 89 1006.3
20260506084516 55 0.0 0.0 0.00 0.01 0.00 90 1006.2
20260506083516 55 0.0 0.0 0.00 0.01 0.00 89 1006.1
20260506082516 54 0.0 0.0 0.00 0.01 0.00 90 1006.2
20260506081516 54 0.0 0.0 0.00 0.01 0.00 92 1006.2
20260506080516 53 0.0 0.0 0.00 0.01 0.00 92 1006.2
20260506073516 53 0.0 0.0 0.00 0.01 0.00 92 1006.3
20260506072516 53 0.0 0.0 0.00 0.01 0.00 92 1006.3
20260506071556 53 0.0 0.0 0.00 0.01 0.00 92 1006.3
20260506070516 53 0.0 0.0 0.00 0.01 0.00 91 1006.3
20260506062516 53 0.0 0.0 0.00 0.01 0.00 93 1006.5
20260506061536 52 0.0 0.0 0.00 0.01 0.00 93 1006.6
20260506060516 52 0.0 0.0 0.00 0.01 0.00 93 1006.5
20260506050516 48 0.0 0.0 0.00 0.01 0.00 92 1006.6
20260506044516 47 0.0 0.0 0.00 0.01 0.00 91 1006.6
20260506043516 47 0.0 0.0 0.00 0.01 0.00 91 1006.6
20260506042516 47 0.0 0.0 0.00 0.01 0.00 91 1006.6
20260506041520 47 0.0 0.0 0.00 0.01 0.00 91 1006.8
20260506040516 47 0.0 0.0 0.00 0.01 0.00 91 1006.8
20260506035518 47 0.0 0.0 0.00 0.01 0.00 91 1007.0
20260506034516 47 0.0 0.0 0.00 0.01 0.00 90 1007.1
20260506033516 47 0.0 0.0 0.00 0.01 0.00 90 1007.1
20260506032516 48 0.0 0.0 0.00 0.01 0.00 90 1007.3
20260506031516 48 0.0 0.0 0.00 0.01 0.00 90 1007.3
20260506030516 48 0.0 0.0 0.00 0.01 0.00 90 1007.2
20260506025516 48 0.0 0.0 0.00 0.01 0.00 90 1007.5
20260506024516 48 0.0 0.0 0.00 0.01 0.00 90 1007.6
20260506023516 48 0.0 0.0 0.00 0.01 0.00 90 1007.6
20260506022516 48 0.0 0.0 0.00 0.01 0.00 90 1007.6
20260506021516 48 0.0 0.0 0.00 0.01 0.00 90 1007.5
20260506020536 48 0.0 0.0 0.00 0.01 0.00 90 1007.9
20260506015516 48 0.0 0.0 0.00 0.01 0.00 90 1007.9
20260506014536 48 0.0 0.0 0.00 0.01 0.00 89 1008.0
20260506013516 49 0.0 0.0 0.00 0.01 0.00 89 1008.2
20260506012516 49 0.0 0.0 0.00 0.01 0.00 89 1008.2
20260506011516 49 0.0 0.0 0.00 0.01 0.00 89 1008.3
20260506010516 49 0.0 0.0 0.00 0.01 0.00 89 1008.4
20260506005516 49 0.0 0.0 0.00 0.01 0.00 89 1008.4